Regional Weather Roundup
Issued by NWS

Home | Current Version | Previous Version | Text Only | Print | Product List | Glossary Off
Versions: 1 2 3 4 5 6 7 8 9 10 11 12 13 14 15 16 17 18 19 20 21 22 23 24 25 26 27 28 29 30 31 32 33 34 35 36 37 38 39 40 41 42 43 44 45 46 47 48 49 50

000
ASUS43 KTOP 302108
RWRKS

WEATHER ROUNDUP FOR KANSAS
NATIONAL WEATHER SERVICE GOODLAND KS
400 PM CDT SAT APR 30 2016

NOTE:  "FAIR" INDICATES FEW OR NO CLOUDS BELOW 12,000 FEET WITH NO
SIGNIFICANT WEATHER AND/OR OBSTRUCTIONS TO VISIBILITY.

KSZ001>006-013>018-027>032-041>047-302200-
NORTHWEST KANSAS

CITY           SKY/WX    TMP DP  RH WIND       PRES   REMARKS
GOODLAND       CLOUDY    41  34  76 NW18      29.86R
HAYS           CLOUDY    52  36  54 W14       29.82R
HILL CITY      CLOUDY    48  38  68 NW12      29.83R
RUSSELL        CLOUDY    52  42  69 W20       29.79R
$$

KSZ061>065-074>080-084>089-302200-
SOUTHWEST KANSAS

CITY           SKY/WX    TMP DP  RH WIND       PRES   REMARKS
DODGE CITY     CLOUDY    51  37  58 W18G25    29.85S
ELKHART          N/A     55  33  43 NW16        N/A
GARDEN CITY    CLOUDY    50  34  54 NW21      29.85S
GREAT BEND     CLOUDY    52  39  62 NW16      29.81F
LIBERAL        PTSUNNY   55  37  50 NW21      29.88S
PRATT          PTSUNNY   53  38  57 W16G25    29.82S
$$

KSZ066>073-081>083-090>101-302200-
SOUTHEAST KANSAS

CITY           SKY/WX    TMP DP  RH WIND       PRES   REMARKS
CHANUTE        SUNNY     67  50  54 W16G22    29.76F
COFFEYVILLE    SUNNY     68  53  58 W13       29.78S
HUTCHINSON     CLOUDY    59  42  53 W20       29.80S
MEDICINE LODGE   N/A     60  41  49 NW13      29.82S
NEWTON         MOSUNNY   61  43  51 W16G24    29.80S
PARSONS        SUNNY     67  54  63 W10       29.78F
WICHITA INTL   MOSUNNY   63  45  51 W13G25    29.78S
WICHITA JABRA  MOSUNNY   62  45  53 W20G26    29.78S
WICHITA MCCONL SUNNY     63  45  51 W15       29.78S
WINFIELD       SUNNY     65  47  52 W17       29.80S
$$

KSZ007>012-019>026-033>040-048>060-102>105-302200-
NORTHEAST KANSAS

CITY           SKY/WX    TMP DP  RH WIND       PRES   REMARKS
CONCORDIA      CLOUDY    54  44  69 W13       29.76S
EMPORIA        PTSUNNY   62  47  57 VRB7G17   29.76S
LAWRENCE       SUNNY     67  50  54 W15G25    29.73S
MANHATTAN      PTSUNNY   62  45  53 W10       29.75R
MARYSVILLE     PTSUNNY   59  48  67 W12G23    29.73F
OLATHE IND     MOSUNNY   65  51  60 W14G23    29.75R
OLATHE EXE     MOSUNNY   66  50  56 W14       29.73S
SALINA         CLOUDY    58  45  62 W16       29.78R
TOPEKA BILLARD MOSUNNY   66  47  50 W12G21    29.73S
TOPEKA FORBES  MOSUNNY   67  50  54 W18       29.73S
$$




USA.gov is the U.S. government's official web portal to all federal, state and local government web resources and services.